Location: Unspecified
(57.8012°N, 0.0000°E)
Time: 14:10:55
(UTC+00:00)

Vanguard 1 Rocket - All Passes

Search period start: 04 April 2026 00:00
Search period end: 14 April 2026 00:00
Orbit: 654 x 4213 km, 34.3° (Epoch: 28 March)

Date Brightness Start Highest point End Pass type
(mag) Time Alt. Az. Time Alt. Az. Time Alt. Az.
4 Apr - 01:07:38 10° SSW 01:18:44 20° S 01:26:32 10° SE visible
4 Apr - 03:34:40 10° SW 03:43:25 19° SSW 03:49:29 10° SSE visible
4 Apr - 23:54:40 10° SSW 00:05:50 18° SSE 00:14:07 10° ESE visible
5 Apr - 02:19:47 10° SW 02:31:09 22° S 02:38:42 10° SE visible
5 Apr - 04:49:15 10° WSW 04:55:01 15° SSW 04:59:26 10° S daylight
5 Apr - 22:43:29 10° S 22:52:45 15° SSE 23:00:18 10° ESE visible
6 Apr - 01:05:20 10° SW 01:18:28 23° S 01:27:18 10° SE visible
6 Apr - 03:33:31 10° WSW 03:43:11 20° SSW 03:49:45 10° SSE visible
6 Apr - 23:51:39 10° SSW 00:05:25 22° SSE 00:15:12 10° ESE visible
7 Apr - 02:18:14 10° SW 02:30:53 24° S 02:39:07 10° SE visible
7 Apr - 04:48:43 10° WSW 04:54:40 15° SSW 04:59:15 10° S daylight
7 Apr - 22:39:16 10° S 22:52:10 19° SSE 23:02:06 10° ESE visible
8 Apr - 01:03:20 10° SW 01:18:07 26° S 01:27:49 10° SE visible
8 Apr - 03:32:29 10° WSW 03:42:52 21° SSW 03:49:52 10° SSE visible
8 Apr - 21:29:19 10° SSE 21:38:54 14° SE 21:47:07 10° ESE visible
8 Apr - 23:49:06 10° SSW 00:04:57 25° SSE 00:15:54 10° ESE visible
9 Apr - 02:16:49 10° WSW 02:30:32 26° SSW 02:39:22 10° SE visible
9 Apr - 04:48:21 10° WSW 04:54:12 14° SW 04:58:47 10° S daylight
9 Apr - 22:35:59 10° SSW 22:51:32 22° SSE 23:03:10 10° ESE visible
10 Apr - 01:01:34 10° SW 01:17:41 28° S 01:28:11 10° SE visible
10 Apr - 03:31:33 10° WSW 03:42:25 21° SSW 03:49:48 10° SSE visible
10 Apr - 21:24:36 10° S 21:38:04 18° SE 21:49:09 10° ESE visible
10 Apr - 23:46:56 10° SW 00:04:25 28° S 00:16:22 10° ESE visible
11 Apr - 02:15:32 10° WSW 02:30:05 27° SSW 02:39:29 10° SE visible
11 Apr - 04:48:15 10° WSW 04:53:37 13° SW 04:57:58 10° SSW daylight
11 Apr - 20:16:42 10° SSE 20:24:48 13° SE 20:32:13 10° ESE visible
11 Apr - 22:33:18 10° SSW 22:50:50 26° SSE 23:03:49 10° ESE visible
12 Apr - 00:59:58 10° SW 01:17:12 30° S 01:28:23 10° SE visible
12 Apr - 03:30:43 10° WSW 03:41:53 21° SSW 03:49:34 10° S visible
12 Apr - 21:21:04 10° S 21:37:10 22° SSE 21:50:16 10° ESE visible
12 Apr - 23:45:02 10° SW 00:03:48 31° S 00:16:39 10° ESE visible
13 Apr - 02:14:21 10° WSW 02:29:33 27° SSW 02:39:27 10° SSE visible
13 Apr - 04:48:35 10° WSW 04:52:54 12° SW 04:56:35 10° SSW daylight
13 Apr - 20:11:07 10° SSE 20:23:42 16° SE 20:34:56 10° ESE visible
13 Apr - 22:31:01 10° SSW 22:50:04 29° SSE 23:04:13 10° ESE visible
